Location: Launois
(49.6535°N, 4.5395°E)
Time: 23:39:14
(UTC+00:00)

CZ-2D R/B - Pass Details

Date: 10 August 2024
Orbit: 790 x 842 km, 98.8° (Epoch: 07 September)

Event Time Altitude Azimuth Distance (km) Brightness Sun altitude
Rises 03:14:01 0° 7° (N) 3,323 6.1 -10.6°
Reaches altitude 10° 03:16:40 10° 355° (N) 2,395 5.0 -10.3°
Maximum altitude 03:20:57 26° 300° (WNW) 1,560 3.4 -9.7°
Enters shadow 03:25:08 11° 247° (WSW) 2,366 3.9 -9.2°
